User: anonymous   Login
Location: Chillicothe
(39.7950°N, 93.5520°W)
Time: 16:59:56
(UTC-06:00)
Language:

SO-50 - Orbit

View from above orbital plane
View from above orbital plane
View from above satellite
View from above satellite

Ground track
Ground track

The orbit data is extracted from the following two-line orbital elements,

1 27607U 02058C   19320.14064645 -.00000027  00000-0  16990-4 0  9991
2 27607  64.5546 309.6128 0072468 227.1362 132.3640 14.75588810909232
Epoch (UTC): 16 November 2019 03:22:31
Eccentricity: 0.0072468
inclination: 64.5546°
perigee height: 592 km
apogee height: 694 km
right ascension of ascending node: 309.6128°
argument of perigee: 227.1362°
revolutions per day: 14.75588810
mean anomaly at epoch: 132.3640°
orbit number at epoch: 90923

The dashed part of the orbit path shows where the satellite is in the earth's shadow,  

DLR